Home > Weather > Sandefjord > Past weeks

Flag for Norway Past Weather in Sandefjord, Norway — Yesterday and Last 2 Weeks

Now
57 °F

Cool.


Feels Like: 56 °F
Forecast: 58 / 76 °F
Wind: 7 mph from North

Location: Torp

Current Time: May 31, 2016 at 4:20:17 AM

Latest Report: May 31, 2016 at 3:50 AM


Visibility: N/A

Pressure: 30.15 "Hg

Humidity: 94%

Dew Point: 55 °F

Location of SandefjordLocation

Past Weather in Sandefjord — Graph

°F

Sandefjord Temperature Yesterday

Maximum temperature yesterday: 66 °F (at 3:20 PM)
Minimum temperature yesterday: 54 °F (at 7:20 AM)
Average temperature yesterday: 59 °F

High & Low Weather Summary for the Past Weeks

 TemperatureHumidityPressure
High68 °F (May 27, 3:50 PM)100% (May 17, 11:50 PM)30.18 "Hg (May 17, 11:50 PM)
Low37 °F (May 17, 5:20 AM)29% (May 16, 3:50 PM)29.62 "Hg (May 18, 4:50 AM)
Average54 °F80%29.93 "Hg
* Reported May 16 2:20 AM — May 31 2:50 AM, Sandefjord, Weather by CustomWeather, © 2016

Note: Actual official high and low records may vary slightly from our data, if they occured in-between our weather recording intervals... More about our weather records

Advertising

Sandefjord Weather History for the Previous 24 Hours

Scroll right to see more
 ConditionsComfort  
Time TempWeatherWind HumidityBarometerVisibility
2:50 AM
Tue, May 31
57 °FCool.8 mph94%30.15 "HgN/A
2:20 AM57 °FCool.9 mph94%30.15 "HgN/A
1:50 AM59 °FCool.7 mph88%30.15 "HgN/A
1:20 AM59 °FClear.8 mph88%30.15 "Hg10 mi
12:50 AM57 °FClear.9 mph94%30.15 "Hg10 mi
12:20 AM59 °FClear.7 mph88%30.15 "Hg10 mi
11:50 PM
Mon, May 30
59 °FClear.7 mph88%30.12 "Hg10 mi
11:20 PM59 °FClear.8 mph88%30.12 "Hg10 mi
10:50 PM61 °FSunny.8 mph83%30.12 "Hg10 mi
10:20 PM61 °FSunny.9 mph88%30.12 "Hg10 mi
9:50 PM61 °FSunny.8 mph88%30.12 "Hg10 mi
9:20 PM63 °FSunny.8 mph83%30.09 "Hg10 mi
8:50 PM64 °FSunny.8 mph78%30.09 "Hg10 mi
8:20 PM64 °FSunny.9 mph78%30.09 "Hg10 mi
7:50 PM63 °FSunny.8 mph83%30.09 "Hg10 mi
7:20 PM64 °FSunny.8 mph78%30.09 "Hg10 mi
6:50 PM66 °FSunny.10 mph73%30.09 "Hg10 mi
6:20 PM66 °FSunny.12 mph73%30.09 "Hg10 mi
5:50 PM66 °FSunny.13 mph73%30.09 "Hg10 mi
5:20 PM66 °FSunny.15 mph73%30.09 "Hg10 mi
4:50 PM64 °FSunny.15 mph78%30.09 "Hg10 mi
4:20 PM66 °FSunny.15 mph73%30.09 "Hg10 mi
3:50 PM64 °FSunny.14 mph78%30.09 "Hg10 mi
3:20 PM66 °FSunny.15 mph73%30.12 "Hg10 mi
2:50 PM64 °FSunny.16 mph78%30.12 "Hg10 mi
2:20 PM64 °FPassing clouds.15 mph78%30.12 "HgN/A
1:50 PM63 °FScattered clouds.15 mph83%30.12 "HgN/A
12:50 PM61 °FBroken clouds.15 mph88%30.12 "HgN/A
12:20 PM59 °FBroken clouds.17 mph88%30.12 "HgN/A
11:50 AM59 °FBroken clouds.16 mph94%30.12 "HgN/A
11:20 AM57 °FBroken clouds.15 mph94%30.12 "HgN/A
10:50 AM55 °FPartly sunny.17 mph100%30.15 "HgN/A
10:20 AM55 °FPartly sunny.17 mph100%30.12 "HgN/A
9:50 AM57 °FPartly sunny.17 mph100%30.12 "HgN/A
9:20 AM55 °FScattered clouds.15 mph100%30.12 "HgN/A
8:50 AM55 °FBroken clouds.13 mph100%30.12 "HgN/A
8:20 AM54 °FBroken clouds.13 mph100%30.12 "HgN/A
7:50 AM54 °FRain. Fog.13 mph100%30.12 "Hg3 mi
7:20 AM54 °FRain. Broken clouds.12 mph100%30.15 "Hg4 mi
6:50 AM55 °FRain. Broken clouds.10 mph100%30.12 "Hg5 mi
6:20 AM55 °FOvercast.9 mph100%30.12 "HgN/A
5:50 AM55 °FOvercast.9 mph100%30.12 "HgN/A
5:20 AM55 °FOvercast.8 mph100%30.12 "HgN/A
4:50 AM55 °FOvercast.9 mph100%30.12 "HgN/A
4:20 AM55 °FOvercast.9 mph100%30.12 "HgN/A
Weather by CustomWeather, © 2016

See weather overviewHow to use our weather pages